Regional Weather Roundup
Issued by NWS

Home | Current Version | Previous Version | Text Only | Print | Product List | Glossary Off
Versions: 1 2 3 4 5 6 7 8 9 10 11 12 13 14 15 16 17 18 19 20 21 22 23 24 25 26 27 28 29 30 31 32 33 34 35 36 37 38 39 40 41 42 43 44 45 46 47 48 49 50

000
ASUS45 KPSR 231510
RWRAZ

ARIZONA REGIONAL HOURLY WEATHER ROUNDUP
NATIONAL WEATHER SERVICE PHOENIX AZ
800 AM MST THU OCT 23 2014

NOTE: FAIR INDICATES FEW OR NO CLOUDS BELOW 12,000 FEET WITH NO
SIGNIFICANT WEATHER AND/OR OBSTRUCTIONS TO VISIBILITY.

AZZ001>003-036-231600-
NORTHWEST ARIZONA

CITY           SKY/WX    TMP DP  RH WIND       PRES   REMARKS
BULLHEAD CITY  SUNNY     64  41  42 CALM      30.03R
KINGMAN        PTSUNNY   60  40  47 SE7       30.15R
$$

AZZ004>008-015-016-018-231600-
NORTH CENTRAL ARIZONA

CITY           SKY/WX    TMP DP  RH WIND       PRES   REMARKS
GRAND CANYON   MOSUNNY   40  29  64 CALM      30.32R
PRESCOTT       MOSUNNY   53  37  54 CALM      30.25R
FLAGSTAFF      SUNNY     43  34  70 CALM      30.35R
PAYSON         SUNNY     57  41  54 CALM      30.26R
PAGE           MOSUNNY   57  30  35 CALM      30.22R
$$

AZZ009>014-017-231600-
NORTHEAST ARIZONA

CITY           SKY/WX    TMP DP  RH WIND       PRES   REMARKS
WINSLOW        SUNNY     49  40  71 E5        30.27R
SAINT JOHNS    SUNNY     51  42  71 CALM      30.29R
WINDOW ROCK    SUNNY     40  30  67 CALM      30.35R
SHOW LOW       SUNNY     54  41  62 CALM      30.33R
$$

AZZ023-231600-
GREATER PHOENIX AREA

CITY           SKY/WX    TMP DP  RH WIND       PRES   REMARKS
PHOENIX        MOSUNNY   72  51  47 E5        30.01R
BUCKEYE          N/A     66  46  48 CALM      30.02R
GLENDALE       MOSUNNY   68  55  64 CALM      30.03R
LUKE AFB       SUNNY     69  51  52 N7        30.02R
DEER VALLEY    SUNNY     73  47  39 E6        30.03R
SCOTTSDALE     SUNNY     68  52  56 CALM      30.04R
CHANDLER       MOSUNNY   64  52  63 CALM      30.03R
$$

AZZ027-028-231600-
SOUTHWEST MARICOPA COUNTY AND PINAL COUNTY

CITY           SKY/WX    TMP DP  RH WIND       PRES   REMARKS
CASA GRANDE    SUNNY     66  48  52 CALM      30.04R
GILA BEND      SUNNY     66  48  52 SE1       30.01R
$$

AZZ503-504-507>509-231600-
SOUTHEAST ARIZONA

CITY           SKY/WX    TMP DP  RH WIND       PRES   REMARKS
TUCSON         SUNNY     64  48  56 S10       30.11R
DAVIS-MONTHAN  SUNNY     64  48  57 S10       30.09R
RYAN FIELD       N/A     64  52  63 E5        30.10R
NOGALES        SUNNY     59  48  67 CALM      30.17R
SIERRA VISTA   MOSUNNY   64  46  52 CALM      30.23R
DOUGLAS        SUNNY     58  48  69 CALM      30.21R
SAFFORD        SUNNY     61  51  70 CALM      30.15R
$$

AZZ020-021-025-026-031-231600-
SOUTHWEST ARIZONA

CITY           SKY/WX    TMP DP  RH WIND       PRES   REMARKS
YUMA           MOSUNNY   76  49  38 N5        29.95R
$$

CAZ031-033-041-043-047-048-061-231600-
SOUTHERN CALIFORNIA

CITY           SKY/WX    TMP DP  RH WIND       PRES   REMARKS
DOWNTOWN L.A.  SUNNY     63  52  67 CALM      29.96R
L.A. AIRPORT   MOSUNNY   65  55  70 VRB3      29.97R
SAN DIEGO      MOSUNNY   64  55  72 CALM      29.98R
BURBANK        SUNNY     62  45  53 CALM      29.98R
ONTARIO        MOSUNNY   62  50  64 CALM      29.99R
RIVERSIDE      SUNNY     62  41  46 NE5       29.99R
PALM SPRINGS   MOSUNNY   72  28  19 NW8       29.98R
EL CENTRO NAS  MOSUNNY   68  34  28 W6        29.94R
IMPERIAL       SUNNY     67  40  37 W7        29.94R
BLYTHE         SUNNY     68  42  38 CALM      29.98R
NEEDLES        SUNNY     70  40  33 SW3       30.02R
$$

NVZ020-UTZ003-231600-
SOUTHERN NEVADA-UTAH

CITY           SKY/WX    TMP DP  RH WIND       PRES   REMARKS
LAS VEGAS      PTSUNNY   66  32  28 S6        30.05R
SALT LAKE CITY PTSUNNY   51  34  52 S7        30.14R
$$

NMZ009-TXZ055-231600-
NEW MEXICO-WEST TEXAS

CITY           SKY/WX    TMP DP  RH WIND       PRES   REMARKS
ALBUQUERQUE    SUNNY     54  42  64 W3        30.30R
EL PASO        SUNNY     61  54  77 CALM      30.20R
$$


........................KEY........................
SKY/WX - SKY CONDITION/WEATHER
TMP    - TEMPERATURE IN FAHRENHEIT
DP     - DEW POINT IN FAHRENHEIT
RH     - RELATIVE HUMIDITY IN PERCENT
WIND   - DIRECTION AND SPEED IN MILES PER HOUR (MPH)
VRB    - VARIABLE WIND DIRECTION
PRES   - MEAN SEA LEVEL PRESSURE IN INCHES OF MERCURY
         F - FALLING PRESSURE   R - RISING PRESSURE
         S - STEADY PRESSURE
VSB    - VISIBILITY IN MILES
HX     - HEAT INDEX IN FAHRENHEIT
WCI    - WIND CHILL INDEX IN FAHRENHEIT
TC     - TEMPERATURE IN CELSIUS WHICH IS ALSO KNOWN AS
         TEMPERATURE IN CENTIGRADE
AFB    - AIR FORCE BASE
         LUKE AFB IS LUKE AIR FORCE BASE
         DAVIS-MONTHAN IS DAVIS-MONTHAN AIR FORCE BASE
NAS    - NAVAL AIR STATION
         EL CENTRO NAS IS EL CENTRO NAVAL AIR STATION
N/A    - NOT AVAILABLE



USA.gov is the U.S. government's official web portal to all federal, state and local government web resources and services.